Preview of NWS' New Version of Forecast
This preview is not operational and should not be used for support decisions.
Latest weather observations around

Lansing Municipal Airport (KIGQ)

Using English Units (Switch to International System of Units)
Date/ Time (CST) Wind (mph) Vis. (mi) Weather Sky Cond. Temp (°F) Rel. Humidity Wind Chill (°F) Heat Index (°F) Pressure Precip. (in)
Air Dwpt 6 hour Altimeter (inHg) Sea level (inHg) 1 hr 3 hr 6 hr
Max Min
Feb 21 16:15 WSW 9 10 Clear CLR 33 21     61% 25   30.26        
Feb 21 15:55 W 10 10 Clear CLR 33 21     61% 25   30.26        
Feb 21 15:35 W 5 10 Clear CLR 33 20     56% 29   30.25        
Feb 21 15:15 W 13 10 Clear CLR 33 20     57% 24   30.25        
Feb 21 14:55 WSW 11 10 Clear CLR 34 20     57% 26   30.23        
Feb 21 14:35 W 15 10 Clear CLR 34 21     58% 24   30.22        
Feb 21 14:15 W 11 10 Clear CLR 34 20     57% 25   30.22        
Feb 21 13:55 WNW 9 10 Clear CLR 34 20     57% 27   30.2        
Feb 21 13:35 W 13 10 Clear CLR 35 22     58% 26   30.22        
Feb 21 13:15 W 9 10 Clear CLR 35 21     57% 28   30.2        
Feb 21 12:55 W 14 10 Clear CLR 35 21     56% 26   30.2        
Feb 21 12:35 W 14 10 Clear CLR 35 22     57% 26   30.2        
Feb 21 12:15 W 10 10 Clear CLR 36 23     59% 29   30.2        
Feb 21 11:55 W 11 10 Clear CLR 35 21     57% 27   30.21        
Feb 21 11:35 W 17 10 Clear CLR 35 21     57% 25   30.21        
Feb 21 11:15 W 16 10 Clear CLR 35 22     59% 24   30.2        
Feb 21 10:55 WSW 16 10 Clear CLR 34 21     60% 23   30.2        
Feb 21 10:35 W 17 10 Clear CLR 33 20     60% 22   30.21        
Feb 21 10:15 W 17 10 Clear CLR 33 21     63% 22   30.2        
Feb 21 09:55 WSW 15 10 Clear CLR 32 23     68% 22   30.19        
Feb 21 09:35 W 13 10 Clear CLR 32 22     68% 22   30.19        
Feb 21 09:15 W 14 10 Clear CLR 32 23     69% 22   30.18        
Feb 21 08:55 W 10 10 Clear CLR 32 23     69% 23   30.16        
Feb 21 08:35 W 13 10 Clear CLR 31 23     71% 21   30.16        
Feb 21 08:15 W 10 10 Clear CLR 31 23     72% 22   30.15        
Feb 21 07:55 W 8 10 Clear CLR 30 23     74% 22   30.13        
Feb 21 07:35 W 7 10 Clear CLR 29 23     79% 21   30.13        
Feb 21 07:15 W 6 10 Clear CLR 27 22     82% 20   30.12        
Feb 21 06:55 W 7 10 Clear CLR 27 22     81% 20   30.11        
Feb 21 06:35 WSW 6 10 Clear CLR 27 22     80% 21   30.1        
Feb 21 06:15 WSW 7 10 Clear CLR 27 22     81% 20   30.09        
Feb 21 05:55 WSW 7 10 Clear CLR 28 22     80% 21   30.08        
Feb 21 05:35 WSW 6 10 Clear CLR 28 22     79% 22   30.08        
Feb 21 05:15 WSW 7 10 Clear CLR 28 22     78% 21   30.07        
Feb 21 04:55 WSW 9 10 Clear CLR 28 22     77% 20   30.06        
Feb 21 04:35 WSW 10 10 Clear   29 22     76% 20   30.05        
Feb 21 04:15 WSW 10 10 Clear   29 22     76% 20   30.05        
Feb 21 03:55 WSW 9 10 Clear   29 22     76% 21   30.04        
Feb 21 03:35 W 11 10 Clear CLR 29 22     74% 19   30.03        
Feb 21 03:15 WSW 13 10 Clear CLR 29 23     76% 19   30.02        
Feb 21 02:55 WSW 14 10 Clear CLR 30 24     77% 19   30.01        
Feb 21 02:35 WSW 10 10 Clear CLR 30 24     76% 22   30.02        
Feb 21 02:15 W 20 10 Partly Cloudy and Windy SCT029 31 24     74% 19   30        
Feb 21 01:55 WSW 15 10 Mostly Cloudy BKN029 32 25     75% 21   29.99        
Feb 21 01:35 WSW 11 10 Cloudy OVC028 32 26     78% 23   29.99        
Feb 21 01:15 W 10 10 Cloudy OVC028 32 26     78% 24   29.98        
Feb 21 00:55 WSW 14 10 Cloudy OVC032 33 25     75% 23   29.96        
Feb 21 00:35 W 15 10 Mostly Cloudy BKN034 33 25     75% 22   29.96        
Feb 21 00:15 W 17 10 Partly Cloudy SCT034 33 26     73% 22   29.94        
Feb 20 23:55 W 20 10 Mostly Cloudy and Windy BKN032 BKN039 34 26     73% 22   29.93        
Feb 20 23:35 W 21 10 Cloudy and Windy OVC030 34 28     77% 23   29.92        
Feb 20 23:15 WSW 17 10 Cloudy SCT022 OVC027 34 29     82% 24   29.91        
Feb 20 22:55 WSW 16 10 Cloudy SCT023 OVC031 35 29     79% 25   29.9        
Feb 20 22:35 W 14 10 Cloudy OVC031 35 29     79% 26   29.9        
Feb 20 22:15 WSW 16 10 Cloudy SCT025 OVC031 35 30     83% 25   29.89        
Feb 20 21:55 WSW 15 10 Cloudy OVC033 35 29     79% 26   29.88        
Feb 20 21:35 WSW 16 10 Clear   35 30     82% 25   29.87        
Feb 20 21:15 WSW 13 10 Clear   35 31     84% 26   29.86        
Feb 20 20:55 WSW 17 10 Clear   35 31     85% 25   29.85        
Feb 20 20:35 WSW 15 10 Cloudy OVC030 35 31     86% 26   29.84        
Feb 20 20:15 WSW 14 10 Cloudy SCT023 OVC028 35 32     88% 26   29.83        
Feb 20 19:55 WSW 17 10 Cloudy SCT020 OVC028 35 32     87% 25   29.82        
Feb 20 19:35 WSW 15 10 Cloudy OVC019 36 32     87% 26   29.81        
Feb 20 19:15 WSW 13 10 Cloudy BKN015 OVC022 35 33     89% 27   29.8        
Feb 20 18:55 WSW 15 10 Cloudy BKN013 OVC018 36 33     90% 26   29.79        
Feb 20 18:35 WSW 15 10 Cloudy OVC011 36 33     91% 26   29.78        
Feb 20 18:15 SW 15 10 Cloudy OVC011 36 33     92% 26   29.77        
Feb 20 17:55 WSW 16 10 Cloudy OVC011 36 34     92% 26   29.75        
Feb 20 17:35 WSW 17 10 Cloudy OVC011 36 34     92% 26   29.74        
Feb 20 17:15 WSW 13 10 Cloudy OVC009 36 35     93% 28   29.73        
Feb 20 16:55 WSW 15 10 Cloudy OVC009 37 35     94% 28   29.73        
Feb 20 16:35 WSW 20 10 Cloudy and Windy OVC009 37 36     94% 27   29.73        
Feb 20 16:15 SW 18 10 Cloudy OVC009 37 36     96% 27   29.72        
Feb 20 15:55 SW 15 10 Cloudy OVC007 37 36     99% 28   29.71        
Feb 20 15:35 SSW 13 10 Cloudy OVC007 37 37     99% 29   29.69        
Feb 20 15:15 SW 14 5 Light Drizzle OVC005 36 36     100% 28   29.71        
Feb 20 14:55 SSW 13 3 Drizzle OVC005 36 36     100% 28   29.7        
Feb 20 14:35 S 10 3 Drizzle OVC005 36 36     100% 29   29.7        
Feb 20 14:15 S 11 3 Drizzle OVC005 36 36     100% 28   29.7        
Feb 20 13:55 S 10 3 Drizzle OVC005 36 36     100% 28   29.71        
Feb 20 13:35 S 11 2 Drizzle OVC005 36 36     100% 28   29.7        
Feb 20 13:15 SSE 10 2 Light Rain OVC005 35 35     99% 27   29.71        
Feb 20 12:55 SSE 11 2 Light Drizzle OVC005 35 34     99% 26   29.73        
Feb 20 12:35 SSE 10 1.5 Drizzle OVC005 34 34     99% 26   29.74        
Feb 20 12:15 SE 11 1.25 Unknown Precipitation OVC005 33 33     99% 25   29.75        
Feb 20 11:55 SSE 15 1.5 Unknown Precipitation OVC005 33 32     98% 23   29.77       0
Feb 20 11:35 SE 13 1.5 Unknown Precipitation OVC007 33 32     96% 24   29.78        
Feb 20 11:15 SE 16 5 Fog/Mist OVC007 33 32     97% 22   29.79        
Feb 20 10:55 SE 13 4 Fog/Mist OVC007 32 31     98% 22   29.81        
Feb 20 10:35 ESE 14 1.75 Light Rain OVC007 32 31     96% 22   29.81        
Feb 20 10:15 SE 14 4 Fog/Mist OVC007 32 31     95% 22   29.84        
Feb 20 09:55 SE 13 3 Fog/Mist OVC007 31 30     96% 22   29.87        
Feb 20 09:35 ESE 14 4 Fog/Mist OVC007 31 29     95% 20   29.87        
Feb 20 09:15 ESE 14 2.5 Fog/Mist OVC007 31 29     95% 20   29.89        
Feb 20 08:55 E 16 1.75 Fog/Mist OVC007 31 29     94% 20   29.89     0  
Feb 20 08:35 E 11 1.75 Unknown Precipitation OVC007 31 29     94% 21   29.91        
Feb 20 08:15 E 15 1 Unknown Precipitation OVC007 31 29     95% 20   29.93        
Feb 20 07:55 E 13 1.25 Unknown Precipitation OVC007 30 29     94% 20   29.94        
Feb 20 07:35 E 16 3 Unknown Precipitation OVC009 29 28     93% 18   29.94        
Feb 20 07:15 E 11 4 Fog/Mist OVC009 29 27     92% 20   29.96        
Feb 20 06:55 E 15 4 Unknown Precipitation OVC009 29 27     93% 18   29.95   0    
Feb 20 06:35 E 14 5 Unknown Precipitation OVC009 29 27     92% 18   29.98   0    
Feb 20 06:15 E 15 4 Light Snow OVC009 28 27     93% 17   30   0    
Feb 20 05:55 E 15 4 Light Snow OVC009 28 27     93% 17   30.02   0   0
Feb 20 05:35 E 10 1.75 Light Snow OVC009 28 27     93% 19   30.05   0    
Feb 20 05:15 E 13 1.25 Light Snow BKN011 OVC017 29 26     91% 18   30.07        
Feb 20 04:55 E 9 2.5 Light Snow SCT011 BKN033 OVC039 29 26     91% 20   30.08        
Feb 20 04:35 E 9 2 Light Snow SCT012 BKN021 OVC027 28 27     93% 20   30.09        
Feb 20 04:15 E 11 0.75 Light Snow BKN015 OVC023 29 26     90% 19   30.11        
Feb 20 03:55 E 11 5 Light Snow SCT025 BKN033 OVC055 30 24     79% 21   30.12        
Feb 20 03:35 E 9 10 Cloudy SCT048 BKN055 OVC070 30 24     78% 22   30.14        
Feb 20 03:15 E 9 10 Cloudy OVC070 30 24     77% 22   30.15        
Feb 20 02:55 E 8 10 Cloudy BKN085 OVC100 30 23     76% 22   30.16        
Feb 20 02:35 E 8 10 Cloudy OVC100 30 23     76% 22   30.17        
Feb 20 02:15 E 6 10 Cloudy OVC100 29 23     75% 23   30.19        
Feb 20 01:55 ESE 8 10 Cloudy OVC100 29 23     76% 22   30.22        
Feb 20 01:35 Calm 10 Cloudy SCT080 OVC110 30 22     74%     30.24        
Feb 20 01:15 E 7 10 Cloudy BKN080 OVC100 30 22     73% 23   30.24        
Feb 20 00:55 E 7 10 Cloudy OVC100 30 22     73% 23   30.26        
Feb 20 00:35 E 8 10 Cloudy OVC090 30 22     73% 22   30.27        
Feb 20 00:15 E 9 10 Cloudy OVC080 30 22     72% 21   30.28        
Feb 19 23:55 Calm 10 Cloudy OVC080 30 22     72%     30.31        
Feb 19 23:35 Calm 10 Cloudy OVC090 30 22     71%     30.33        
Feb 19 23:15 Calm 10 Mostly Cloudy BKN100 30 21     70%     30.34        
Feb 19 22:55 Calm 10 Mostly Cloudy BKN100 30 21     70%     30.35        
Feb 19 22:35 Calm 10 Clear   30 21     69%     30.36        
Feb 19 22:15 Calm 10 Clear   30 21     70%     30.38        
Feb 19 21:55 E 6 10 Clear   30 21     68% 24   30.39        
Feb 19 21:35 Calm 10 Cloudy OVC100 30 20     67%     30.4        
Feb 19 21:15 E 7 10 Cloudy OVC100 30 21     67% 23   30.41        
Feb 19 20:55 E 7 10 Mostly Cloudy BKN110 30 21     67% 23   30.41        
Feb 19 20:35 E 8 10 Partly Cloudy SCT120 30 21     68% 23   30.41        
Feb 19 20:15 E 6 10 Clear CLR 30 21     69% 24   30.42        
Feb 19 19:55 E 8 10 Clear CLR 31 21     67% 23   30.41        
Feb 19 19:35 E 5 10 Clear CLR 31 22     68% 26   30.43        
Feb 19 19:15 E 6 10 Clear CLR 31 22     70% 25   30.44        
Feb 19 18:55 ENE 5 10 Clear CLR 30 23     74% 25   30.45        
Feb 19 18:35 E 6 10 Clear CLR 31 22     68% 25   30.46        
Feb 19 18:15 E 7 10 Clear CLR 31 22     69% 24   30.46        
Feb 19 17:55 E 6 10 Clear CLR 31 23     73% 25   30.47        
Feb 19 17:35 ESE 7 10 Clear CLR 31 22     69% 24   30.48        
Feb 19 17:15 ESE 7 10 Clear CLR 31 22     68% 24   30.48        
Feb 19 16:55 SE 6 10 Clear CLR 31 22     67% 26   30.48        
Feb 19 16:35 SE 7 10 Clear CLR 32 22     67% 25   30.49        
Feb 19 16:15 ESE 7 10 Clear CLR 32 22     68% 26   30.49        
Feb 19 15:55 ESE 6 10 Partly Cloudy SCT032 33 23     67% 27   30.49        
Feb 19 15:35 ESE 6 10 Clear CLR 33 22     64% 28   30.49        
Feb 19 15:15 E 8 10 Partly Cloudy SCT033 33 22     64% 26   30.49        
Feb 19 14:55 Calm 10 Mostly Cloudy BKN033 34 23     63%     30.5        
Feb 19 14:35 Calm 10 Mostly Cloudy BKN031 33 21     61%     30.52        
Feb 19 14:15 Calm 10 Partly Cloudy SCT031 33 22     63%     30.52        
Feb 19 13:55 Calm 10 Partly Cloudy SCT029 32 21     63%     30.53        
Feb 19 13:35 Calm 10 Cloudy OVC029 32 22     68%     30.54        
Feb 19 13:15 Calm 10 Mostly Cloudy BKN027 32 21     63%     30.54        
Feb 19 12:55 Calm 10 Mostly Cloudy BKN027 31 21     64%     30.55        
Feb 19 12:35 Calm 10 Cloudy OVC027 31 22     67%     30.57        
Feb 19 12:15 Calm 10 Mostly Cloudy BKN027 31 22     68%     30.58        
Feb 19 11:55 Calm 10 Mostly Cloudy BKN027 31 22     68%     30.6        
Feb 19 11:35 Calm 10 Mostly Cloudy BKN025 31 21     67%     30.61        
Feb 19 11:15 Calm 10 Mostly Cloudy BKN023 31 22     69%     30.62        
Feb 19 10:55 Calm 10 Partly Cloudy SCT023 SCT030 30 22     70%     30.62        
Feb 19 10:35 Calm 10 Clear CLR 29 22     73%     30.62        
Feb 19 10:15 Calm 10 Clear CLR 28 21     73%     30.64        
Feb 19 09:55 Calm 10 Clear CLR 27 19     71%     30.64        
Feb 19 09:35 Calm 10 Clear CLR 26 18     71%     30.64        
Feb 19 09:15 Calm 10 Partly Cloudy SCT025 22 20     93%     30.64        
Feb 19 08:55 Calm 10 Partly Cloudy SCT025 21 20     97%     30.64        
Feb 19 08:35 Calm 10 Clear CLR 20 19     95%     30.65        
Feb 19 08:15 Calm 7 Clear CLR 19 18     95%     30.65        
Feb 19 07:55 Calm 7 Partly Cloudy SCT024 16 15     95%     30.65        
Feb 19 07:35 Calm 7 Partly Cloudy SCT026 14 12     94%     30.64        
Feb 19 07:15 Calm 5 Fog/Mist SCT026 13 11     92%     30.64        
Feb 19 06:55 Calm 5 Fog/Mist CLR 13 11     91%     30.63        
Feb 19 06:35 Calm 10 Clear   15 13     94%     30.62        
Feb 19 06:15 Calm 10 Clear   15 14     93%     30.61        
Feb 19 05:55 Calm 10 Clear   15 14     93%     30.61        
Feb 19 05:35 Calm 10 Cloudy OVC027 14 12     92%     30.61        
Feb 19 05:15 Calm 7 Cloudy OVC027 13 11     92%     30.62        
Feb 19 04:55 Calm 5 Fog/Mist SCT027 13 12     92%     30.6        
Feb 19 04:35 Calm 7 Clear CLR 12 10     92%     30.59        
Feb 19 04:15 Calm 4 Fog/Mist CLR 12 10     91%     30.58        
Feb 19 03:55 Calm 4 Fog/Mist CLR 12 10     91%     30.58        
Feb 19 03:35 Calm 2.5 Fog/Mist CLR 13 11     92%     30.58        
Feb 19 03:15 Calm 3 Fog/Mist CLR 15 13     93%     30.58        
Feb 19 02:55 Calm 7 Partly Cloudy SCT030 15 14     94%     30.57        
Feb 19 02:35 Calm 7 Mostly Cloudy BKN030 15 13     93%     30.58        
Feb 19 02:15 Calm 10 Mostly Cloudy BKN030 15 14     95%     30.58        
Feb 19 01:55 Calm 10 Cloudy OVC030 16 15     95%     30.57        
Feb 19 01:35 Calm 10 Mostly Cloudy BKN030 17 15     92%     30.57        
Feb 19 01:15 Calm 10 Partly Cloudy SCT030 17 15     91%     30.57        
Feb 19 00:55 Calm 10 Mostly Cloudy BKN030 18 16     90%     30.57        
Feb 19 00:35 Calm 10 Mostly Cloudy BKN032 21 18     88%     30.57        
Feb 19 00:15 Calm 10 Mostly Cloudy BKN034 20 18     90%     30.56        
Feb 18 23:55 Calm 10 Cloudy OVC034 21 18     91%     30.56        
Feb 18 23:35 Calm 10 Cloudy OVC034 20 18     90%     30.56        
Feb 18 23:15 Calm 10 Mostly Cloudy BKN036 22 19     88%     30.56        
Feb 18 22:55 Calm 10 Cloudy OVC036 24 19     83%     30.55        
Feb 18 22:35 Calm 10 Cloudy OVC036 24 20     84%     30.56        
Feb 18 22:15 Calm 10 Cloudy OVC036 24 20     84%     30.55        
Feb 18 21:55 Calm 10 Cloudy OVC036 24 20     84%     30.55        
Feb 18 21:35 Calm 10 Cloudy OVC038 24 20     83%     30.55        
Feb 18 21:15 Calm 10 Cloudy OVC038 24 20     82%     30.54        
Feb 18 20:55 Calm 10 Cloudy OVC038 24 19     81%     30.53        
Feb 18 20:35 Calm 10 Cloudy OVC038 24 19     82%     30.53        
Feb 18 20:15 Calm 10 Cloudy OVC038 20 18     89%     30.53        
Feb 18 19:55 Calm 10 Mostly Cloudy BKN038 21 17     85%     30.52        
Feb 18 19:35 Calm 10 Partly Cloudy SCT033 SCT044 22 16     78%     30.52        
Feb 18 19:15 Calm 10 Clear CLR 25 18     77%     30.51        
Feb 18 18:55 Calm 10 Partly Cloudy SCT042 25 18     75%     30.5        
Feb 18 18:35 Calm 10 Cloudy OVC042 26 18     74%     30.49        
Feb 18 18:15 Calm 10 Cloudy OVC042 26 18     73%     30.48        
Feb 18 17:55 Calm 10 Cloudy SCT035 OVC042 26 19     73%     30.47        
Feb 18 17:35 Calm 10 Cloudy OVC042 26 20     75%     30.46        
Feb 18 17:15 Calm 10 Cloudy OVC040 27 20     77%     30.45        
Feb 18 16:55 Calm 10 Cloudy OVC036 27 20     76%     30.45        
Feb 18 16:35 Calm 10 Unknown Precipitation SCT029 OVC038 27 20     75%     30.44        
Feb 18 16:15 Calm 10 Cloudy SCT029 OVC040 27 20     75%     30.43        
Feb 18 15:55 Calm 10 Cloudy SCT023 SCT029 OVC042 27 20     73%     30.43        
Notice The following observation data may not be complete
May 15 09:15   10 Partly Cloudy SCT017 SCT032          %              
May 14 23:15 SE 5 1.5 Cloudy BKN015 BKN024 OVC038 63 63     98%     29.85   0    
May 14 10:15 Calm 10 Cloudy OVC090 65 65     99%     29.98        
May 14 06:55   7 Cloudy BKN050 BKN065 OVC080 58 57     97%     30.01        
May 14 02:35 SE 3 7 Clear CLR 52 52     100%     29.92        
May 13 22:55 Calm 7 Mostly Cloudy BKN085 52 51     98%     29.99        
May 13 14:15 N 7 10 Partly Cloudy SCT080 64 57     78%     30.02        
May 13 12:35 NNE 5 7 Clear   63 58     82%     30.04        
May 13 12:15 NNE 7 7 Mostly Cloudy BKN100 62 57     83%     30.04        
Notice The following observation data may not be complete
May 13 09:15   4 Fog/Mist OVC005          %              
May 13 01:15 NE 8 3 Thunderstorms and Rain OVC003 50 50     100% 47   30.05        
May 12 23:35 NE 3 5 Fog/Mist OVC005 47 47     100% 46   30.04        
May 12 16:35 ENE 8 2 Clear   47 47     100% 43   30.04        
May 12 14:15 NNE 9 7 Cloudy OVC012 48 46     93% 44   30.11        
Notice The following observation data may not be complete
May 12 13:15   7 Cloudy OVC012          %              
May 12 12:35 NNE 11 10 Cloudy OVC010 50 47     90% 45   30.1        
May 12 03:35 NNE 13 10 Clear   47 45     93% 42   29.96        
May 12 01:55 NE 13 10 Cloudy OVC080 49 46     92% 44   29.95        
Notice The following observation data may not be complete
May 12 00:35   10 Cloudy OVC090          %              
May 11 23:35 NNE 6 10 Cloudy OVC090 51 47     89%     29.96        
May 11 22:55 NE 5 10 Cloudy SCT090 OVC120 50 47     90% 48   29.96        
May 11 22:35 NNE 6 10 Cloudy OVC120 50 47     90% 48   29.96        
May 11 21:55 NE 6 10 Cloudy OVC110 50 47     90% 47   29.96        
May 11 20:55 NE 10 10 Mostly Cloudy SCT070 BKN095 50 47     90% 46   29.94        
May 11 13:15 E 15 10 Clear CLR 58 51     76%     29.94        
Jun 12 07:35 W 13 10 Clear CLR 76 61     60%   76 29.99        
Jun 12 01:55 SSW 10 10 Clear CLR 73 58     58%   73 29.96        
Jun 11 21:15 S 14 10 Clear CLR 81 56     42%   81 29.89        
Notice The following observation data may not be complete
Jun 11 16:35   10 Clear CLR          %              
Jun 11 12:35 SW 18 10 Clear CLR 88 59     38%   88 29.96        
Notice The following observation data may not be complete
Jun 11 12:15   10 Clear CLR          %              
Jun 11 10:35 WSW 16 10 Clear CLR 84 60     44%   84 29.99        
Notice The following observation data may not be complete
Jun 11 02:35   10 Clear CLR          %              
Notice The following observation data may not be complete
Jun 10 20:15   10 Clear CLR          %              
Jun 10 17:55 SSW 23 10 Clear and Windy CLR 87 47     24%   84 29.81        
Jun 10 15:55   10 Clear CLR 89 47     24%   86 29.83        
Jun 10 15:15 SSW 23 7 Clear and Windy CLR 89 49     26%   86 29.83        
Jun 10 13:15   10 Clear CLR 87 49     28%   84 29.87        
Jun 10 10:55 SW 20 10 Clear and Windy CLR 82 53     37%   81 29.89        
Jun 10 08:15 SW 9 10 Clear CLR 71 56     59%   70 29.91        
Notice The following observation data may not be complete
Jun 09 23:15   10 Clear CLR          %              
Jun 09 18:55 NNE 8 10 Mostly Cloudy SCT085 BKN110 72 56     56%   72 29.8        
Notice The following observation data may not be complete
Jun 09 18:15   10 Mostly Cloudy SCT030 BKN085          %              
Jun 09 16:35 NE 13 10 Clear   83 55     38%   82 29.77        
Jun 09 16:15   10 Partly Cloudy SCT090 88 52     29%   86 29.76        
Jun 09 10:35 W 11 10 Clear CLR 80 54     40%   80 29.82        
Notice The following observation data may not be complete
Jun 09 09:15   10 Partly Cloudy SCT095          %              
Jun 09 06:55 NNW 9 10 Partly Cloudy SCT100 SCT120 68 50     53%     29.81        
Notice The following observation data may not be complete
Jun 09 04:35   10 Clear CLR          %              
Jun 09 00:15 Calm 10 Clear   64 49     57%     29.85        
Jun 08 23:15 S 7 10 Mostly Cloudy BKN100 65 49     55%     29.85        
Jun 08 18:55 WSW 6 10 Clear CLR 77 41     27%   76 29.86        
Notice The following observation data may not be complete
Jun 07 22:15   10 Clear CLR          %              
Notice The following observation data may not be complete
Jun 07 21:15   10 Clear CLR          %              
Jun 07 14:35 NE 9 10 Clear CLR 71 45     40%   70 30.11        
Jun 07 11:55 NNE 11 10 Clear CLR 69 48     48%     30.14        
Jun 07 10:55 NNE 11 10 Clear CLR 67 48     49%     30.15        
Notice The following observation data may not be complete
Jun 07 09:15   10 Clear CLR          %              
Jun 06 09:55 NNE 10 10 Clear CLR 63 48     59%     30.06        
Notice The following observation data may not be complete
Jun 06 09:15   10 Clear CLR          %              
Jun 06 04:35 N 7 10 Clear CLR 55 49     81%     29.99        
Jun 06 00:35 N 10 10 Clear CLR 57 45     64%     29.96        
Notice The following observation data may not be complete
Jun 05 19:15   10 Clear CLR          %